Time,TemperatureF,DewpointF,PressureIn,WindDirection,WindDirectionDegrees,WindSpeedMPH,WindSpeedGustMPH,Humidity,HourlyPrecipIn,Conditions,Clouds,dailyrainin,SoftwareType,DateUTC
2013-02-14 00:04:00,32.4,30.3,29.62,SSW,202,0.0,-999.0,92,-99.99,,,0.00,Acu-Link.com,2013-02-14 05:04:00,
2013-02-14 00:19:00,32.2,30.1,29.63,SSW,202,0.0,-999.0,92,-99.99,,,0.00,Acu-Link.com,2013-02-14 05:19:00,
2013-02-14 00:34:00,32.0,29.9,29.63,SSW,202,1.7,-999.0,92,-99.99,,,0.00,Acu-Link.com,2013-02-14 05:34:00,
2013-02-14 00:50:00,31.8,29.7,29.64,SSW,202,0.0,-999.0,92,-99.99,,,0.00,Acu-Link.com,2013-02-14 05:50:00,
2013-02-14 01:05:00,31.6,29.5,29.65,SSW,202,0.0,-999.0,92,-99.99,,,0.00,Acu-Link.com,2013-02-14 06:05:00,
2013-02-14 01:20:00,31.8,29.7,29.65,SSW,202,1.1,-999.0,92,-99.99,,,0.00,Acu-Link.com,2013-02-14 06:20:00,
2013-02-14 01:36:00,31.8,29.7,29.66,SSW,202,0.0,-999.0,92,-99.99,,,0.00,Acu-Link.com,2013-02-14 06:36:00,
2013-02-14 01:51:00,31.8,30.0,29.66,SSW,202,0.0,-999.0,93,-99.99,,,0.00,Acu-Link.com,2013-02-14 06:51:00,
2013-02-14 02:06:00,31.8,30.0,29.67,West,270,0.0,-999.0,93,-99.99,,,0.00,Acu-Link.com,2013-02-14 07:06:00,
2013-02-14 02:22:00,31.6,29.8,29.68,West,270,1.7,-999.0,93,-99.99,,,0.00,Acu-Link.com,2013-02-14 07:22:00,
2013-02-14 02:37:00,31.3,29.5,29.69,West,270,1.1,-999.0,93,-99.99,,,0.00,Acu-Link.com,2013-02-14 07:37:00,
2013-02-14 02:53:00,30.9,29.1,29.70,West,270,0.0,-999.0,93,-99.99,,,0.00,Acu-Link.com,2013-02-14 07:53:00,
2013-02-14 03:08:00,30.4,28.6,29.70,West,270,0.0,-999.0,93,-99.99,,,0.00,Acu-Link.com,2013-02-14 08:08:00,
2013-02-14 03:23:00,30.2,28.4,29.70,West,270,0.0,-999.0,93,-99.99,,,0.00,Acu-Link.com,2013-02-14 08:23:00,
2013-02-14 03:38:00,29.8,28.0,29.71,West,270,1.7,-999.0,93,-99.99,,,0.00,Acu-Link.com,2013-02-14 08:38:00,
2013-02-14 03:54:00,29.3,27.5,29.72,West,270,1.7,-999.0,93,-99.99,,,0.00,Acu-Link.com,2013-02-14 08:54:00,
2013-02-14 04:16:00,29.1,27.3,29.72,West,270,1.1,-999.0,93,-99.99,,,0.00,Acu-Link.com,2013-02-14 09:16:00,
2013-02-14 04:31:00,28.6,26.8,29.73,West,270,0.0,-999.0,93,-99.99,,,0.00,Acu-Link.com,2013-02-14 09:31:00,
2013-02-14 04:46:00,28.4,26.6,29.74,West,270,1.7,-999.0,93,-99.99,,,0.00,Acu-Link.com,2013-02-14 09:46:00,
2013-02-14 05:01:00,28.2,26.4,29.75,West,270,0.0,-999.0,93,-99.99,,,0.00,Acu-Link.com,2013-02-14 10:01:00,
2013-02-14 05:16:00,27.1,25.4,29.76,West,270,0.0,-999.0,93,-99.99,,,0.00,Acu-Link.com,2013-02-14 10:16:00,
2013-02-14 05:32:00,26.2,24.2,29.76,West,270,0.0,-999.0,92,-99.99,,,0.00,Acu-Link.com,2013-02-14 10:32:00,
2013-02-14 05:47:00,26.2,24.2,29.76,West,270,0.0,-999.0,92,-99.99,,,0.00,Acu-Link.com,2013-02-14 10:47:00,
2013-02-14 06:02:00,26.8,25.1,29.77,West,270,0.0,-999.0,93,-99.99,,,0.00,Acu-Link.com,2013-02-14 11:02:00,
2013-02-14 06:17:00,27.0,25.3,29.78,West,270,0.0,-999.0,93,-99.99,,,0.00,Acu-Link.com,2013-02-14 11:17:00,
2013-02-14 06:33:00,27.3,25.5,29.79,West,270,0.0,-999.0,93,-99.99,,,0.00,Acu-Link.com,2013-02-14 11:33:00,
2013-02-14 06:48:00,27.7,25.9,29.79,West,270,0.0,-999.0,93,-99.99,,,0.00,Acu-Link.com,2013-02-14 11:48:00,
2013-02-14 07:03:00,28.0,26.5,29.81,ESE,112,0.0,-999.0,94,-99.99,,,0.00,Acu-Link.com,2013-02-14 12:03:00,
2013-02-14 07:18:00,27.5,26.0,29.82,ESE,112,0.0,-999.0,94,-99.99,,,0.00,Acu-Link.com,2013-02-14 12:18:00,
2013-02-14 07:33:00,26.6,24.9,29.84,ESE,112,0.0,-999.0,93,-99.99,,,0.00,Acu-Link.com,2013-02-14 12:33:00,
2013-02-14 07:49:00,26.4,24.4,29.84,ESE,112,0.0,-999.0,92,-99.99,,,0.00,Acu-Link.com,2013-02-14 12:49:00,
2013-02-14 08:04:00,27.1,25.1,29.86,ESE,112,0.0,-999.0,92,-99.99,,,0.00,Acu-Link.com,2013-02-14 13:04:00,
2013-02-14 08:19:00,28.6,26.6,29.86,ESE,112,0.0,-999.0,92,-99.99,,,0.00,Acu-Link.com,2013-02-14 13:19:00,
2013-02-14 08:35:00,29.7,27.7,29.86,ESE,112,0.0,-999.0,92,-99.99,,,0.00,Acu-Link.com,2013-02-14 13:35:00,
2013-02-14 08:50:00,30.6,28.3,29.86,ESE,112,1.1,-999.0,91,-99.99,,,0.00,Acu-Link.com,2013-02-14 13:50:00,
2013-02-14 09:05:00,31.3,28.7,29.86,ESE,112,1.7,-999.0,90,-99.99,,,0.00,Acu-Link.com,2013-02-14 14:05:00,
2013-02-14 09:21:00,32.0,28.6,29.86,ESE,112,1.7,-999.0,87,-99.99,,,0.00,Acu-Link.com,2013-02-14 14:21:00,
2013-02-14 09:36:00,33.1,28.5,29.87,ESE,112,0.0,-999.0,83,-99.99,,,0.00,Acu-Link.com,2013-02-14 14:36:00,
2013-02-14 09:51:00,32.0,28.0,29.86,ESE,112,0.0,-999.0,85,-99.99,,,0.00,Acu-Link.com,2013-02-14 14:51:00,
2013-02-14 10:07:00,32.2,25.5,29.85,WSW,247,0.0,-999.0,76,-99.99,,,0.00,Acu-Link.com,2013-02-14 15:07:00,
2013-02-14 10:22:00,33.4,26.0,29.85,West,270,2.2,-999.0,74,-99.99,,,0.00,Acu-Link.com,2013-02-14 15:22:00,
2013-02-14 10:37:00,32.9,25.2,29.85,WNW,292,1.7,-999.0,73,-99.99,,,0.00,Acu-Link.com,2013-02-14 15:37:00,
2013-02-14 10:53:00,34.2,26.1,29.85,NW,315,1.1,-999.0,72,-99.99,,,0.00,Acu-Link.com,2013-02-14 15:53:00,
2013-02-14 11:08:00,36.5,27.3,29.85,NW,315,2.7,-999.0,69,-99.99,,,0.02,Acu-Link.com,2013-02-14 16:08:00,
2013-02-14 11:23:00,35.8,26.6,29.85,NW,315,2.7,-999.0,69,-99.99,,,0.03,Acu-Link.com,2013-02-14 16:23:00,
2013-02-14 11:38:00,35.6,25.7,29.85,WNW,292,2.7,-999.0,67,-99.99,,,0.04,Acu-Link.com,2013-02-14 16:38:00,
2013-02-14 11:53:00,37.4,26.7,29.84,WNW,292,2.2,-999.0,65,-99.99,,,0.04,Acu-Link.com,2013-02-14 16:53:00,
2013-02-14 12:09:00,37.0,26.0,29.84,NNE,22,2.2,-999.0,64,-99.99,,,0.04,Acu-Link.com,2013-02-14 17:09:00,
2013-02-14 12:24:00,39.6,27.7,29.84,South,180,1.7,-999.0,62,-99.99,,,0.04,Acu-Link.com,2013-02-14 17:24:00,
2013-02-14 12:39:00,39.4,27.9,29.84,WNW,292,1.1,-999.0,63,-99.99,,,0.04,Acu-Link.com,2013-02-14 17:39:00,
2013-02-14 12:55:00,38.8,28.1,29.84,WNW,292,1.7,-999.0,65,-99.99,,,0.04,Acu-Link.com,2013-02-14 17:55:00,
2013-02-14 13:10:00,38.7,27.2,29.83,WNW,292,1.7,-999.0,63,-99.99,,,0.04,Acu-Link.com,2013-02-14 18:10:00,
2013-02-14 13:25:00,41.2,28.4,29.82,West,270,3.2,-999.0,60,-99.99,,,0.04,Acu-Link.com,2013-02-14 18:25:00,
2013-02-14 13:41:00,41.2,29.2,29.81,SSW,202,2.2,-999.0,62,-99.99,,,0.04,Acu-Link.com,2013-02-14 18:41:00,
2013-02-14 13:56:00,39.9,28.3,29.83,SSE,157,2.7,-999.0,63,-99.99,,,0.04,Acu-Link.com,2013-02-14 18:56:00,
2013-02-14 14:11:00,41.0,29.0,29.82,SSW,202,2.7,-999.0,62,-99.99,,,0.04,Acu-Link.com,2013-02-14 19:11:00,
2013-02-14 14:27:00,40.8,29.2,29.82,SSW,202,1.7,-999.0,63,-99.99,,,0.04,Acu-Link.com,2013-02-14 19:27:00,
2013-02-14 14:42:00,43.3,29.9,29.82,WNW,292,2.7,-999.0,59,-99.99,,,0.04,Acu-Link.com,2013-02-14 19:42:00,
2013-02-14 14:57:00,42.8,29.1,29.82,ENE,67,1.1,-999.0,58,-99.99,,,0.04,Acu-Link.com,2013-02-14 19:57:00,
2013-02-14 15:13:00,42.4,29.1,29.81,South,180,3.7,-999.0,59,-99.99,,,0.04,Acu-Link.com,2013-02-14 20:13:00,
2013-02-14 15:28:00,42.1,28.8,29.81,ESE,112,1.7,-999.0,59,-99.99,,,0.04,Acu-Link.com,2013-02-14 20:28:00,
2013-02-14 15:43:00,41.9,29.4,29.81,South,180,1.1,-999.0,61,-99.99,,,0.04,Acu-Link.com,2013-02-14 20:43:00,
2013-02-14 15:58:00,42.3,29.4,29.81,North,0,1.1,-999.0,60,-99.99,,,0.04,Acu-Link.com,2013-02-14 20:58:00,
2013-02-14 16:14:00,41.9,29.4,29.81,ESE,112,1.1,-999.0,61,-99.99,,,0.04,Acu-Link.com,2013-02-14 21:14:00,
2013-02-14 16:29:00,41.9,29.4,29.81,ESE,112,0.0,-999.0,61,-99.99,,,0.04,Acu-Link.com,2013-02-14 21:29:00,
2013-02-14 16:44:00,41.0,29.4,29.81,ESE,112,0.0,-999.0,63,-99.99,,,0.04,Acu-Link.com,2013-02-14 21:44:00,
2013-02-14 16:59:00,40.6,29.4,29.80,ESE,112,0.0,-999.0,64,-99.99,,,0.04,Acu-Link.com,2013-02-14 21:59:00,
2013-02-14 17:15:00,39.9,28.7,29.80,ESE,112,0.0,-999.0,64,-99.99,,,0.04,Acu-Link.com,2013-02-14 22:15:00,
2013-02-14 17:30:00,39.2,29.2,29.80,ESE,112,0.0,-999.0,67,-99.99,,,0.04,Acu-Link.com,2013-02-14 22:30:00,
2013-02-14 17:45:00,38.7,29.1,29.80,ESE,112,0.0,-999.0,68,-99.99,,,0.04,Acu-Link.com,2013-02-14 22:45:00,
2013-02-14 18:00:00,38.3,28.7,29.81,ESE,112,0.0,-999.0,68,-99.99,,,0.04,Acu-Link.com,2013-02-14 23:00:00,
2013-02-14 18:16:00,37.8,28.9,29.81,ESE,112,0.0,-999.0,70,-99.99,,,0.04,Acu-Link.com,2013-02-14 23:16:00,
2013-02-14 18:31:00,37.0,28.5,29.81,ESE,112,0.0,-999.0,71,-99.99,,,0.04,Acu-Link.com,2013-02-14 23:31:00,
2013-02-14 18:46:00,36.1,28.3,29.81,ESE,112,0.0,-999.0,73,-99.99,,,0.04,Acu-Link.com,2013-02-14 23:46:00,
2013-02-14 19:02:00,35.2,27.8,29.81,ESE,112,0.0,-999.0,74,-99.99,,,0.04,Acu-Link.com,2013-02-15 00:02:00,
2013-02-14 19:17:00,34.5,27.4,29.82,ESE,112,0.0,-999.0,75,-99.99,,,0.04,Acu-Link.com,2013-02-15 00:17:00,
2013-02-14 19:34:00,33.6,26.9,29.82,ESE,112,0.0,-999.0,76,-99.99,,,0.04,Acu-Link.com,2013-02-15 00:34:00,
2013-02-14 19:50:00,33.4,27.6,29.83,ESE,112,0.0,-999.0,79,-99.99,,,0.04,Acu-Link.com,2013-02-15 00:50:00,
2013-02-14 20:06:00,33.6,27.8,29.82,ESE,112,0.0,-999.0,79,-99.99,,,0.04,Acu-Link.com,2013-02-15 01:06:00,
2013-02-14 20:21:00,33.8,28.0,29.82,ESE,112,0.0,-999.0,79,-99.99,,,0.04,Acu-Link.com,2013-02-15 01:21:00,
2013-02-14 20:36:00,33.4,27.6,29.83,ESE,112,0.0,-999.0,79,-99.99,,,0.04,Acu-Link.com,2013-02-15 01:36:00,
2013-02-14 20:52:00,33.3,27.8,29.82,ESE,112,0.0,-999.0,80,-99.99,,,0.04,Acu-Link.com,2013-02-15 01:52:00,
2013-02-14 21:07:00,32.7,27.2,29.83,ESE,112,0.0,-999.0,80,-99.99,,,0.04,Acu-Link.com,2013-02-15 02:07:00,
2013-02-14 21:22:00,32.4,27.5,29.82,ESE,112,0.0,-999.0,82,-99.99,,,0.04,Acu-Link.com,2013-02-15 02:22:00,
2013-02-14 21:38:00,32.4,27.5,29.82,ESE,112,0.0,-999.0,82,-99.99,,,0.04,Acu-Link.com,2013-02-15 02:38:00,
2013-02-14 21:53:00,32.4,27.5,29.82,ESE,112,0.0,-999.0,82,-99.99,,,0.04,Acu-Link.com,2013-02-15 02:53:00,
2013-02-14 22:08:00,32.4,27.5,29.81,ESE,112,0.0,-999.0,82,-99.99,,,0.04,Acu-Link.com,2013-02-15 03:08:00,
2013-02-14 22:23:00,32.7,27.8,29.81,ESE,112,0.0,-999.0,82,-99.99,,,0.04,Acu-Link.com,2013-02-15 03:23:00,
2013-02-14 22:39:00,32.9,28.0,29.80,ESE,112,0.0,-999.0,82,-99.99,,,0.04,Acu-Link.com,2013-02-15 03:39:00,
2013-02-14 22:54:00,32.9,28.0,29.80,ESE,112,0.0,-999.0,82,-99.99,,,0.04,Acu-Link.com,2013-02-15 03:54:00,
2013-02-14 23:09:00,33.4,28.2,29.80,ESE,112,0.0,-999.0,81,-99.99,,,0.04,Acu-Link.com,2013-02-15 04:09:00,
2013-02-14 23:25:00,34.0,28.2,29.79,ESE,112,0.0,-999.0,79,-99.99,,,0.04,Acu-Link.com,2013-02-15 04:25:00,
2013-02-14 23:40:00,34.2,28.4,29.79,ESE,112,0.0,-999.0,79,-99.99,,,0.04,Acu-Link.com,2013-02-15 04:40:00,